User: anonymous   Login
Location: Spradlin Observatory
(33.4706°N, 86.3221°W)
Time: 20:42:06
(UTC-05:00)
Language:

COSMOS 2406 - Orbit

View from above orbital plane
View from above orbital plane
View from above satellite
View from above satellite

Ground track
Ground track

The orbit data is extracted from the following two-line orbital elements,

1 28352U 04021A   17177.24933637 -.00000002 +00000-0 +25027-4 0  9990
2 28352 071.0013 105.7784 0013014 088.5492 271.7120 14.11612084672082
Epoch (UTC): 26 June 2017 05:59:02
Eccentricity: 0.0013014
inclination: 71.0013°
perigee height: 844 km
apogee height: 863 km
right ascension of ascending node: 105.7784°
argument of perigee: 88.5492°
revolutions per day: 14.11612084
mean anomaly at epoch: 271.7120°
orbit number at epoch: 67208

The dashed part of the orbit path shows where the satellite is in the earth's shadow,  

DLR